Home   Weather   Kehl   Past weeks

Flag for Germany Past Weather in Kehl, Baden-Württemberg, Germany — Yesterday and Last 2 Weeks

Now
23 °F

Ice fog.


Feels Like: 16 °F
Forecast: 16 / 27 °F
Wind: 6 mph from West

Location: Strasbourg Airport

Current Time: Jan 24, 2017 at 6:23:07 am

Latest Report: Jan 24, 2017 at 6:00 am


Visibility: 2 mi

Pressure: 30.30 "Hg

Humidity: 93%

Dew Point: 21 °F

Location of KehlLocation

Past Weather in Kehl — Graph

°F

Kehl Temperature Yesterday

Maximum temperature yesterday: 23 °F (at 1:00 pm)
Minimum temperature yesterday: 19 °F (at 12:00 am)
Average temperature yesterday: 21 °F

High & Low Weather Summary for the Past Weeks

 TemperatureHumidityPressure
High46 °F (Jan 13, 12:00 am)100% (Jan 9, 7:30 am)30.54 "Hg (Jan 9, 7:30 am)
Low12 °F (Jan 22, 5:00 am)51% (Jan 18, 2:00 pm)29.36 "Hg (Jan 12, 11:30 pm)
Average29 °F84%30.20 "Hg
* Reported Jan 9 5:00 am — Jan 24 5:00 am, Kehl, Weather by CustomWeather, © 2017

Note: Actual official high and low records may vary slightly from our data, if they occured in-between our weather recording intervals... More about our weather records

Advertising

Kehl Weather History for the Previous 24 Hours

Scroll right to see more
 ConditionsComfort  
Time TempWeatherWind HumidityBarometerVisibility
5:00 am
Tue, Jan 24
23 °FIce fog.3 mph93%30.30 "Hg2 mi
4:30 am23 °FIce fog.5 mph93%30.30 "Hg2 mi
4:00 am23 °FIce fog.2 mph93%30.30 "Hg2 mi
3:30 am23 °FIce fog.2 mph93%30.30 "Hg2 mi
3:00 am23 °FIce fog.3 mph93%30.30 "Hg2 mi
2:30 am23 °FIce fog.3 mph93%30.30 "Hg2 mi
2:00 am23 °FIce fog.6 mph93%30.30 "Hg1 mi
1:30 am21 °FIce fog.5 mph100%30.30 "Hg1 mi
1:00 am23 °FIce fog.3 mph93%30.30 "Hg2 mi
12:30 am23 °FIce fog.7 mph93%30.30 "Hg2 mi
12:00 am23 °FIce fog.5 mph93%30.30 "Hg2 mi
11:30 pm
Mon, Jan 23
21 °FIce fog.5 mph100%30.30 "Hg2 mi
11:00 pm23 °FIce fog.5 mph93%30.30 "Hg2 mi
10:30 pm21 °FIce fog.3 mph100%30.30 "Hg2 mi
10:00 pm23 °FIce fog.3 mph93%30.30 "Hg2 mi
9:30 pm23 °FIce fog.2 mph93%30.30 "Hg2 mi
9:00 pm23 °FIce fog.2 mph93%30.30 "Hg2 mi
8:30 pm21 °FIce fog.2 mph100%30.30 "Hg2 mi
8:00 pm21 °FIce fog.2 mph100%30.30 "Hg2 mi
7:30 pm23 °FIce fog.2 mph93%30.30 "Hg2 mi
7:00 pm23 °FIce fog.2 mph93%30.30 "Hg2 mi
6:30 pm23 °FIce fog.3 mph93%30.30 "Hg2 mi
6:00 pm23 °FIce fog.2 mph93%30.30 "Hg2 mi
5:30 pm23 °FIce fog.2 mph93%30.30 "Hg2 mi
5:00 pm23 °FIce fog.3 mph93%30.30 "Hg1 mi
4:30 pm23 °FIce fog.No wind93%30.30 "Hg1 mi
4:00 pm23 °FIce fog.2 mph93%30.30 "Hg1 mi
3:30 pm23 °FIce fog.3 mph93%30.27 "Hg1 mi
3:00 pm23 °FIce fog.6 mph93%30.27 "Hg1 mi
2:30 pm23 °FIce fog.2 mph93%30.27 "Hg1 mi
2:00 pm23 °FIce fog.2 mph93%30.27 "Hg1 mi
1:30 pm23 °FIce fog.2 mph93%30.30 "Hg1 mi
1:00 pm23 °FIce fog.2 mph93%30.30 "Hg1 mi
12:30 pm21 °FIce fog.3 mph93%30.30 "Hg1 mi
12:00 pm21 °FIce fog.2 mph93%30.30 "Hg1 mi
11:30 am21 °FIce fog.3 mph93%30.33 "Hg1 mi
11:00 am21 °FLow clouds.2 mph93%30.30 "Hg1 mi
10:30 am21 °FIce fog.2 mph93%30.30 "Hg1 mi
10:00 am19 °FIce fog.2 mph100%30.33 "Hg1 mi
9:30 am19 °FIce fog.3 mph93%30.30 "Hg1 mi
9:00 am19 °FIce fog.5 mph93%30.30 "Hg1 mi
8:30 am19 °FIce fog.3 mph93%30.30 "Hg1 mi
8:00 am19 °FIce fog.5 mph93%30.30 "Hg1 mi
7:30 am19 °FIce fog.3 mph93%30.30 "Hg1 mi
7:00 am19 °FIce fog.3 mph93%30.30 "Hg1 mi
6:30 am19 °FIce fog.3 mph100%30.30 "Hg1 mi
6:00 am19 °FIce fog.5 mph100%30.27 "Hg1 mi
Weather by CustomWeather, © 2017

See weather overviewHow to use our weather pages